Time,TemperatureF,DewpointF,PressureIn,WindDirection,WindDirectionDegrees,WindSpeedMPH,WindSpeedGustMPH,Humidity,HourlyPrecipIn,Conditions,Clouds,dailyrainin,SoftwareType,DateUTC
2013-12-20 00:05:00,50.4,4.4,29.97,SW,215,5.0,8.0,15,0.00,,,0.00,Wunderground v.1.15,2013-12-20 08:05:00,
2013-12-20 00:10:00,50.2,4.2,29.97,NW,319,3.0,3.0,15,0.00,,,0.00,Wunderground v.1.15,2013-12-20 08:10:00,
2013-12-20 00:20:00,50.4,4.4,29.96,WSW,255,4.0,4.0,15,0.00,,,0.00,Wunderground v.1.15,2013-12-20 08:20:00,
2013-12-20 00:25:00,50.5,3.0,29.96,SW,232,3.0,4.0,14,0.00,,,0.00,Wunderground v.1.15,2013-12-20 08:25:00,
2013-12-20 00:35:00,50.1,2.7,29.96,SE,146,2.0,2.0,14,0.00,,,0.00,Wunderground v.1.15,2013-12-20 08:35:00,
2013-12-20 00:40:00,50.1,1.1,29.96,WSW,254,3.0,5.0,13,0.00,,,0.00,Wunderground v.1.15,2013-12-20 08:40:00,
2013-12-20 00:50:00,50.5,1.4,29.96,West,267,4.0,6.0,13,0.00,,,0.00,Wunderground v.1.15,2013-12-20 08:50:00,
2013-12-20 01:00:00,50.4,-0.4,29.96,West,270,4.0,6.0,12,0.00,,,0.00,Wunderground v.1.15,2013-12-20 09:00:00,
2013-12-20 01:05:00,50.8,-0.1,29.96,WSW,240,5.0,10.0,12,0.00,,,0.00,Wunderground v.1.15,2013-12-20 09:05:00,
2013-12-20 01:10:00,51.0,0.1,29.96,West,265,7.0,7.0,12,0.00,,,0.00,Wunderground v.1.15,2013-12-20 09:10:00,
2013-12-20 01:20:00,51.0,0.1,29.95,West,261,8.0,8.0,12,0.00,,,0.00,Wunderground v.1.15,2013-12-20 09:20:00,
2013-12-20 01:25:00,51.0,0.1,29.95,WSW,249,7.0,8.0,12,0.00,,,0.00,Wunderground v.1.15,2013-12-20 09:25:00,
2013-12-20 01:35:00,50.7,-0.2,29.95,West,265,6.0,7.0,12,0.00,,,0.00,Wunderground v.1.15,2013-12-20 09:35:00,
2013-12-20 01:40:00,50.8,-0.1,29.95,WSW,254,7.0,7.0,12,0.00,,,0.00,Wunderground v.1.15,2013-12-20 09:40:00,
2013-12-20 01:50:00,51.0,-1.8,29.95,WNW,284,7.0,9.0,11,0.00,,,0.00,Wunderground v.1.15,2013-12-20 09:50:00,
2013-12-20 02:00:00,51.1,-1.7,29.96,WNW,292,8.0,8.0,11,0.00,,,0.00,Wunderground v.1.15,2013-12-20 10:00:00,
2013-12-20 02:05:00,51.3,-1.5,29.96,SW,234,7.0,8.0,11,0.00,,,0.00,Wunderground v.1.15,2013-12-20 10:05:00,
2013-12-20 02:10:00,51.3,-1.5,29.96,WNW,300,7.0,7.0,11,0.00,,,0.00,Wunderground v.1.15,2013-12-20 10:10:00,
2013-12-20 02:20:00,51.6,-3.3,29.96,WNW,292,9.0,9.0,10,0.00,,,0.00,Wunderground v.1.15,2013-12-20 10:20:00,
2013-12-20 02:25:00,51.7,-3.2,29.96,WSW,243,8.0,9.0,10,0.00,,,0.00,Wunderground v.1.15,2013-12-20 10:25:00,
2013-12-20 02:35:00,51.9,-3.1,29.96,West,265,9.0,16.0,10,0.00,,,0.00,Wunderground v.1.15,2013-12-20 10:35:00,
2013-12-20 02:40:00,51.9,-3.1,29.96,WSW,237,10.0,10.0,10,0.00,,,0.00,Wunderground v.1.15,2013-12-20 10:40:00,
2013-12-20 02:50:00,52.0,-3.0,29.96,WSW,248,9.0,12.0,10,0.00,,,0.00,Wunderground v.1.15,2013-12-20 10:50:00,
2013-12-20 03:00:00,52.0,-3.0,29.96,NW,319,10.0,10.0,10,0.00,,,0.00,Wunderground v.1.15,2013-12-20 11:00:00,
2013-12-20 03:05:00,51.9,-3.1,29.96,West,277,9.0,10.0,10,0.00,,,0.00,Wunderground v.1.15,2013-12-20 11:05:00,
2013-12-20 03:10:00,51.9,-3.1,29.96,West,271,10.0,10.0,10,0.00,,,0.00,Wunderground v.1.15,2013-12-20 11:10:00,
2013-12-20 03:20:00,51.6,-3.3,29.95,SSE,168,7.0,7.0,10,0.00,,,0.00,Wunderground v.1.15,2013-12-20 11:20:00,
2013-12-20 03:30:00,51.4,-3.5,29.95,West,276,7.0,7.0,10,0.00,,,0.00,Wunderground v.1.15,2013-12-20 11:30:00,
2013-12-20 03:35:00,51.4,-3.5,29.95,South,176,9.0,9.0,10,0.00,,,0.00,Wunderground v.1.15,2013-12-20 11:35:00,
2013-12-20 03:45:00,50.8,-1.9,29.96,WSW,252,7.0,8.0,11,0.00,,,0.00,Wunderground v.1.15,2013-12-20 11:45:00,
2013-12-20 03:50:00,50.8,-3.9,29.96,West,269,9.0,9.0,10,0.00,,,0.00,Wunderground v.1.15,2013-12-20 11:50:00,
2013-12-20 03:55:00,50.8,-1.9,29.96,WNW,287,11.0,11.0,11,0.00,,,0.00,Wunderground v.1.15,2013-12-20 11:55:00,
2013-12-20 04:05:00,50.4,-2.3,29.96,West,266,10.0,11.0,11,0.00,,,0.00,Wunderground v.1.15,2013-12-20 12:05:00,
2013-12-20 04:10:00,50.2,-2.4,29.96,WSW,250,9.0,9.0,11,0.00,,,0.00,Wunderground v.1.15,2013-12-20 12:10:00,
2013-12-20 04:20:00,49.9,-2.6,29.96,West,261,9.0,11.0,11,0.00,,,0.00,Wunderground v.1.15,2013-12-20 12:20:00,
2013-12-20 04:25:00,49.8,-0.9,29.96,WNW,288,8.0,11.0,12,0.00,,,0.00,Wunderground v.1.15,2013-12-20 12:25:00,
2013-12-20 04:35:00,49.8,-0.9,29.96,WSW,246,8.0,13.0,12,0.00,,,0.00,Wunderground v.1.15,2013-12-20 12:35:00,
2013-12-20 04:40:00,49.8,-0.9,29.96,WNW,291,9.0,9.0,12,0.00,,,0.00,Wunderground v.1.15,2013-12-20 12:40:00,
2013-12-20 04:50:00,49.9,-2.6,29.96,SSW,213,7.0,7.0,11,0.00,,,0.00,Wunderground v.1.15,2013-12-20 12:50:00,
2013-12-20 04:55:00,49.8,-2.7,29.96,West,269,8.0,8.0,11,0.00,,,0.00,Wunderground v.1.15,2013-12-20 12:55:00,
2013-12-20 05:05:00,50.1,-4.5,29.95,SW,229,7.0,9.0,10,0.00,,,0.00,Wunderground v.1.15,2013-12-20 13:05:00,
2013-12-20 05:15:00,50.1,-2.5,29.95,West,273,7.0,14.0,11,0.00,,,0.00,Wunderground v.1.15,2013-12-20 13:15:00,
2013-12-20 05:20:00,50.5,-4.2,29.95,West,270,8.0,9.0,10,0.00,,,0.00,Wunderground v.1.15,2013-12-20 13:20:00,
2013-12-20 05:30:00,49.9,-4.6,29.96,WSW,257,8.0,8.0,10,0.00,,,0.00,Wunderground v.1.15,2013-12-20 13:30:00,
2013-12-20 05:35:00,49.9,-4.6,29.96,WSW,251,10.0,11.0,10,0.00,,,0.00,Wunderground v.1.15,2013-12-20 13:35:00,
2013-12-20 05:45:00,50.1,-4.5,29.96,WSW,254,10.0,10.0,10,0.00,,,0.00,Wunderground v.1.15,2013-12-20 13:45:00,
2013-12-20 05:50:00,50.1,-4.5,29.96,West,262,9.0,9.0,10,0.00,,,0.00,Wunderground v.1.15,2013-12-20 13:50:00,
2013-12-20 06:00:00,49.8,-4.7,29.95,SW,234,6.0,13.0,10,0.00,,,0.00,Wunderground v.1.15,2013-12-20 14:00:00,
2013-12-20 06:05:00,50.1,-6.7,29.95,SW,225,6.0,13.0,9,0.00,,,0.00,Wunderground v.1.15,2013-12-20 14:05:00,
2013-12-20 06:15:00,50.8,-6.1,29.95,WSW,257,5.0,7.0,9,0.00,,,0.00,Wunderground v.1.15,2013-12-20 14:15:00,
2013-12-20 06:20:00,50.8,-6.1,29.95,WNW,283,7.0,7.0,9,0.00,,,0.00,Wunderground v.1.15,2013-12-20 14:20:00,
2013-12-20 06:30:00,50.8,-6.1,29.96,West,270,8.0,8.0,9,0.00,,,0.00,Wunderground v.1.15,2013-12-20 14:30:00,
2013-12-20 06:35:00,50.8,-6.1,29.96,WSW,244,8.0,8.0,9,0.00,,,0.00,Wunderground v.1.15,2013-12-20 14:35:00,
2013-12-20 06:40:00,50.8,-6.1,29.96,West,265,9.0,9.0,9,0.00,,,0.00,Wunderground v.1.15,2013-12-20 14:40:00,
2013-12-20 06:50:00,50.8,-6.1,29.97,SW,227,7.0,7.0,9,0.00,,,0.00,Wunderground v.1.15,2013-12-20 14:50:00,
2013-12-20 07:00:00,51.0,-6.0,29.97,West,263,6.0,6.0,9,0.00,,,0.00,Wunderground v.1.15,2013-12-20 15:00:00,
2013-12-20 07:05:00,51.1,-5.9,29.97,SW,230,7.0,8.0,9,0.00,,,0.00,Wunderground v.1.15,2013-12-20 15:05:00,
2013-12-20 07:15:00,50.8,-6.1,29.98,WSW,246,6.0,7.0,9,0.00,,,0.00,Wunderground v.1.15,2013-12-20 15:15:00,
2013-12-20 07:20:00,50.8,-6.1,29.98,WSW,243,5.0,6.0,9,0.00,,,0.00,Wunderground v.1.15,2013-12-20 15:20:00,
2013-12-20 07:30:00,51.6,-8.0,29.99,WSW,251,8.0,8.0,8,0.00,,,0.00,Wunderground v.1.15,2013-12-20 15:30:00,
2013-12-20 07:40:00,50.8,-6.1,29.99,SW,216,5.0,5.0,9,0.00,,,0.00,Wunderground v.1.15,2013-12-20 15:40:00,
2013-12-20 07:45:00,49.8,-2.7,29.99,SW,216,2.0,5.0,11,0.00,,,0.00,Wunderground v.1.15,2013-12-20 15:45:00,
2013-12-20 07:55:00,47.9,-4.2,29.99,WNW,296,1.0,2.0,11,0.00,,,0.00,Wunderground v.1.15,2013-12-20 15:55:00,
2013-12-20 08:00:00,48.8,-5.5,30.00,SW,234,2.0,3.0,10,0.00,,,0.00,Wunderground v.1.15,2013-12-20 16:00:00,
2013-12-20 08:10:00,50.4,-6.4,30.00,WNW,293,3.0,5.0,9,0.00,,,0.00,Wunderground v.1.15,2013-12-20 16:10:00,
2013-12-20 08:15:00,50.5,-4.2,30.00,SW,224,3.0,11.0,10,0.00,,,0.00,Wunderground v.1.15,2013-12-20 16:15:00,
2013-12-20 08:25:00,52.5,-4.8,30.00,West,271,7.0,12.0,9,0.00,,,0.00,Wunderground v.1.15,2013-12-20 16:25:00,
2013-12-20 08:30:00,52.8,-4.6,30.00,WSW,243,8.0,9.0,9,0.00,,,0.00,Wunderground v.1.15,2013-12-20 16:30:00,
2013-12-20 08:40:00,53.1,-4.4,30.00,WSW,238,7.0,7.0,9,0.00,,,0.00,Wunderground v.1.15,2013-12-20 16:40:00,
2013-12-20 08:50:00,52.2,-2.9,30.01,WSW,249,5.0,5.0,10,0.00,,,0.00,Wunderground v.1.15,2013-12-20 16:50:00,
2013-12-20 08:55:00,52.3,-5.0,30.01,WSW,258,5.0,5.0,9,0.00,,,0.00,Wunderground v.1.15,2013-12-20 16:55:00,
2013-12-20 09:05:00,52.8,-4.6,30.01,West,261,4.0,9.0,9,0.00,,,0.00,Wunderground v.1.15,2013-12-20 17:05:00,
2013-12-20 09:10:00,53.8,-3.8,30.01,West,260,4.0,8.0,9,0.00,,,0.00,Wunderground v.1.15,2013-12-20 17:10:00,
2013-12-20 09:20:00,55.4,-5.1,30.01,West,265,6.0,6.0,8,0.00,,,0.00,Wunderground v.1.15,2013-12-20 17:20:00,
2013-12-20 09:25:00,55.7,-4.9,30.01,NW,311,7.0,7.0,8,0.00,,,0.00,Wunderground v.1.15,2013-12-20 17:25:00,
2013-12-20 09:35:00,56.3,-7.2,30.02,NW,308,10.0,10.0,7,0.00,,,0.00,Wunderground v.1.15,2013-12-20 17:35:00,
2013-12-20 09:40:00,56.6,-6.9,30.02,WNW,282,9.0,18.0,7,0.00,,,0.00,Wunderground v.1.15,2013-12-20 17:40:00,
2013-12-20 09:50:00,56.9,-9.9,30.02,North,355,9.0,9.0,6,0.00,,,0.00,Wunderground v.1.15,2013-12-20 17:50:00,
2013-12-20 10:00:00,57.0,-9.8,30.03,NW,305,11.0,13.0,6,0.00,,,0.00,Wunderground v.1.15,2013-12-20 18:00:00,
2013-12-20 10:10:00,56.7,-10.0,30.03,WNW,288,11.0,13.0,6,0.00,,,0.00,Wunderground v.1.15,2013-12-20 18:10:00,
2013-12-20 10:15:00,56.9,-9.9,30.03,WNW,302,12.0,21.0,6,0.00,,,0.00,Wunderground v.1.15,2013-12-20 18:15:00,
2013-12-20 10:25:00,57.3,-9.6,30.03,WNW,286,10.0,13.0,6,0.00,,,0.00,Wunderground v.1.15,2013-12-20 18:25:00,
2013-12-20 10:30:00,57.6,-9.4,30.02,West,265,8.0,11.0,6,0.00,,,0.00,Wunderground v.1.15,2013-12-20 18:30:00,
2013-12-20 10:40:00,57.8,-9.2,30.02,West,259,7.0,7.0,6,0.00,,,0.00,Wunderground v.1.15,2013-12-20 18:40:00,
2013-12-20 10:50:00,58.4,-8.8,30.02,West,267,7.0,7.0,6,0.00,,,0.00,Wunderground v.1.15,2013-12-20 18:50:00,
2013-12-20 10:55:00,58.6,-12.3,30.02,West,261,6.0,8.0,5,0.00,,,0.00,Wunderground v.1.15,2013-12-20 18:55:00,
2013-12-20 11:05:00,59.6,-7.9,30.00,WNW,284,3.0,5.0,6,0.00,,,0.00,Wunderground v.1.15,2013-12-20 19:05:00,
2013-12-20 11:15:00,60.2,-11.2,30.00,WSW,257,5.0,5.0,5,0.00,,,0.00,Wunderground v.1.15,2013-12-20 19:15:00,
2013-12-20 11:20:00,60.5,-11.0,30.00,SW,218,5.0,5.0,5,0.00,,,0.00,Wunderground v.1.15,2013-12-20 19:20:00,
2013-12-20 11:30:00,61.5,-10.3,29.99,SE,140,2.0,2.0,5,0.00,,,0.00,Wunderground v.1.15,2013-12-20 19:30:00,
2013-12-20 11:35:00,61.6,-10.2,29.99,SE,133,1.0,2.0,5,0.00,,,0.00,Wunderground v.1.15,2013-12-20 19:35:00,
2013-12-20 11:45:00,62.6,-5.7,29.98,South,173,0.0,3.0,6,0.00,,,0.00,Wunderground v.1.15,2013-12-20 19:45:00,
2013-12-20 11:50:00,62.7,-9.4,29.98,WNW,283,1.0,1.0,5,0.00,,,0.00,Wunderground v.1.15,2013-12-20 19:50:00,
2013-12-20 12:00:00,62.1,-9.8,29.98,WNW,302,5.0,7.0,5,0.00,,,0.00,Wunderground v.1.15,2013-12-20 20:00:00,
2013-12-20 12:10:00,62.3,-9.7,29.98,WSW,254,7.0,7.0,5,0.00,,,0.00,Wunderground v.1.15,2013-12-20 20:10:00,
2013-12-20 12:20:00,62.6,-9.5,29.97,South,186,7.0,7.0,5,0.00,,,0.00,Wunderground v.1.15,2013-12-20 20:20:00,
2013-12-20 12:25:00,63.1,-5.4,29.97,WNW,300,5.0,7.0,6,0.00,,,0.00,Wunderground v.1.15,2013-12-20 20:25:00,
2013-12-20 12:30:00,63.2,-9.0,29.97,North,351,4.0,7.0,5,0.00,,,0.00,Wunderground v.1.15,2013-12-20 20:30:00,
2013-12-20 12:40:00,63.9,-4.8,29.97,West,271,5.0,9.0,6,0.00,,,0.00,Wunderground v.1.15,2013-12-20 20:40:00,
2013-12-20 12:45:00,64.0,-4.7,29.97,WSW,254,7.0,9.0,6,0.00,,,0.00,Wunderground v.1.15,2013-12-20 20:45:00,
2013-12-20 12:55:00,64.8,-0.9,29.97,WSW,241,4.0,7.0,7,0.00,,,0.00,Wunderground v.1.15,2013-12-20 20:55:00,
2013-12-20 13:00:00,64.7,-0.9,29.97,WNW,289,4.0,4.0,7,0.00,,,0.00,Wunderground v.1.15,2013-12-20 21:00:00,
2013-12-20 13:10:00,65.0,2.1,29.97,West,268,4.0,10.0,8,0.00,,,0.00,Wunderground v.1.15,2013-12-20 21:10:00,
2013-12-20 13:20:00,65.2,2.3,29.96,WNW,303,6.0,6.0,8,0.00,,,0.00,Wunderground v.1.15,2013-12-20 21:20:00,
2013-12-20 13:25:00,66.0,5.5,29.96,SE,146,5.0,6.0,9,0.00,,,0.00,Wunderground v.1.15,2013-12-20 21:25:00,
2013-12-20 13:30:00,66.1,5.5,29.95,SW,236,2.0,2.0,9,0.00,,,0.00,Wunderground v.1.15,2013-12-20 21:30:00,
2013-12-20 13:40:00,66.0,5.5,29.95,NW,323,2.0,2.0,9,0.00,,,0.00,Wunderground v.1.15,2013-12-20 21:40:00,
2013-12-20 13:50:00,66.9,6.1,29.94,WSW,246,2.0,2.0,9,0.00,,,0.00,Wunderground v.1.15,2013-12-20 21:50:00,
2013-12-20 13:55:00,67.1,8.6,29.94,WSW,246,1.0,2.0,10,0.00,,,0.00,Wunderground v.1.15,2013-12-20 21:55:00,
2013-12-20 14:05:00,67.3,8.8,29.94,WSW,238,2.0,4.0,10,0.00,,,0.00,Wunderground v.1.15,2013-12-20 22:05:00,
2013-12-20 14:15:00,67.1,8.6,29.94,NNW,327,2.0,2.0,10,0.00,,,0.00,Wunderground v.1.15,2013-12-20 22:15:00,
2013-12-20 14:20:00,67.4,8.9,29.94,SW,233,2.0,2.0,10,0.00,,,0.00,Wunderground v.1.15,2013-12-20 22:20:00,
2013-12-20 14:25:00,67.8,11.3,29.94,WSW,254,3.0,7.0,11,0.00,,,0.00,Wunderground v.1.15,2013-12-20 22:25:00,
2013-12-20 14:35:00,68.4,17.3,29.94,West,268,6.0,6.0,14,0.00,,,0.00,Wunderground v.1.15,2013-12-20 22:35:00,
2013-12-20 14:40:00,68.4,17.3,29.94,ENE,69,5.0,5.0,14,0.00,,,0.00,Wunderground v.1.15,2013-12-20 22:40:00,
2013-12-20 14:50:00,68.3,13.7,29.94,West,267,3.0,3.0,12,0.00,,,0.00,Wunderground v.1.15,2013-12-20 22:50:00,
2013-12-20 15:00:00,67.9,11.4,29.95,WSW,242,5.0,5.0,11,0.00,,,0.00,Wunderground v.1.15,2013-12-20 23:00:00,
2013-12-20 15:05:00,67.8,13.3,29.95,WSW,256,5.0,5.0,12,0.00,,,0.00,Wunderground v.1.15,2013-12-20 23:05:00,
2013-12-20 15:15:00,67.6,11.1,29.96,WNW,294,5.0,5.0,11,0.00,,,0.00,Wunderground v.1.15,2013-12-20 23:15:00,
2013-12-20 15:20:00,67.6,11.1,29.96,WSW,252,4.0,5.0,11,0.00,,,0.00,Wunderground v.1.15,2013-12-20 23:20:00,
2013-12-20 15:30:00,67.1,12.7,29.96,WSW,257,4.0,4.0,12,0.00,,,0.00,Wunderground v.1.15,2013-12-20 23:30:00,
2013-12-20 15:40:00,66.9,12.6,29.96,West,264,4.0,4.0,12,0.00,,,0.00,Wunderground v.1.15,2013-12-20 23:40:00,
2013-12-20 15:50:00,66.6,14.2,29.95,WNW,301,2.0,5.0,13,0.00,,,0.00,Wunderground v.1.15,2013-12-20 23:50:00,
2013-12-20 15:55:00,66.4,14.0,29.95,SW,232,2.0,5.0,13,0.00,,,0.00,Wunderground v.1.15,2013-12-20 23:55:00,
2013-12-20 16:05:00,66.0,17.0,29.95,West,261,1.0,3.0,15,0.00,,,0.00,Wunderground v.1.15,2013-12-21 00:05:00,
2013-12-20 16:10:00,65.2,17.8,29.95,West,261,0.0,0.0,16,0.00,,,0.00,Wunderground v.1.15,2013-12-21 00:10:00,
2013-12-20 16:20:00,63.1,18.9,29.94,West,261,0.0,0.0,18,0.00,,,0.00,Wunderground v.1.15,2013-12-21 00:20:00,
2013-12-20 16:25:00,62.1,19.3,29.94,West,261,0.0,0.0,19,0.00,,,0.00,Wunderground v.1.15,2013-12-21 00:25:00,
2013-12-20 16:35:00,59.8,19.7,29.94,West,261,0.0,0.0,21,0.00,,,0.00,Wunderground v.1.15,2013-12-21 00:35:00,
2013-12-20 16:40:00,58.7,19.9,29.94,West,261,0.0,0.0,22,0.00,,,0.00,Wunderground v.1.15,2013-12-21 00:40:00,
2013-12-20 16:50:00,56.5,20.1,29.93,West,261,0.0,0.0,24,0.00,,,0.00,Wunderground v.1.15,2013-12-21 00:50:00,
2013-12-20 17:00:00,54.5,19.3,29.94,West,261,0.0,0.0,25,0.00,,,0.00,Wunderground v.1.15,2013-12-21 01:00:00,
2013-12-20 17:10:00,53.5,19.4,29.94,West,261,0.0,0.0,26,0.00,,,0.00,Wunderground v.1.15,2013-12-21 01:10:00,
2013-12-20 17:15:00,52.9,18.9,29.94,West,261,0.0,2.0,26,0.00,,,0.00,Wunderground v.1.15,2013-12-21 01:15:00,
2013-12-20 17:25:00,51.7,18.7,29.94,West,261,1.0,1.0,27,0.00,,,0.00,Wunderground v.1.15,2013-12-21 01:25:00,
2013-12-20 17:35:00,50.7,17.9,29.94,West,261,0.0,0.0,27,0.00,,,0.00,Wunderground v.1.15,2013-12-21 01:35:00,
2013-12-20 17:40:00,50.1,18.2,29.94,West,261,0.0,0.0,28,0.00,,,0.00,Wunderground v.1.15,2013-12-21 01:40:00,
2013-12-20 17:50:00,48.3,19.0,29.95,West,261,0.0,0.0,31,0.00,,,0.00,Wunderground v.1.15,2013-12-21 01:50:00,
2013-12-20 18:00:00,47.1,20.1,29.96,West,261,0.0,0.0,34,0.00,,,0.00,Wunderground v.1.15,2013-12-21 02:00:00,
2013-12-20 18:05:00,47.0,20.0,29.96,West,261,1.0,1.0,34,0.00,,,0.00,Wunderground v.1.15,2013-12-21 02:05:00,
2013-12-20 18:10:00,47.1,20.1,29.96,West,261,1.0,1.0,34,0.00,,,0.00,Wunderground v.1.15,2013-12-21 02:10:00,
2013-12-20 18:20:00,46.7,20.5,29.96,West,261,0.0,0.0,35,0.00,,,0.00,Wunderground v.1.15,2013-12-21 02:20:00,
2013-12-20 18:30:00,45.2,20.4,29.97,West,261,0.0,0.0,37,0.00,,,0.00,Wunderground v.1.15,2013-12-21 02:30:00,
2013-12-20 18:35:00,44.8,20.7,29.97,West,261,0.0,0.0,38,0.00,,,0.00,Wunderground v.1.15,2013-12-21 02:35:00,
2013-12-20 18:40:00,44.5,20.4,29.97,West,261,0.0,0.0,38,0.00,,,0.00,Wunderground v.1.15,2013-12-21 02:40:00,
2013-12-20 18:50:00,43.9,20.5,29.98,West,261,0.0,0.0,39,0.00,,,0.00,Wunderground v.1.15,2013-12-21 02:50:00,
2013-12-20 19:00:00,43.3,20.6,29.98,West,261,0.0,0.0,40,0.00,,,0.00,Wunderground v.1.15,2013-12-21 03:00:00,
2013-12-20 19:05:00,43.1,20.4,29.98,West,261,0.0,0.0,40,0.00,,,0.00,Wunderground v.1.15,2013-12-21 03:05:00,
2013-12-20 19:15:00,42.6,20.5,29.99,West,261,0.0,0.0,41,0.00,,,0.00,Wunderground v.1.15,2013-12-21 03:15:00,
2013-12-20 19:20:00,42.6,21.1,29.99,West,261,0.0,0.0,42,0.00,,,0.00,Wunderground v.1.15,2013-12-21 03:20:00,
2013-12-20 19:30:00,42.5,21.5,29.98,West,260,0.0,0.0,43,0.00,,,0.00,Wunderground v.1.15,2013-12-21 03:30:00,
2013-12-20 19:35:00,42.3,21.4,29.98,West,260,0.0,0.0,43,0.00,,,0.00,Wunderground v.1.15,2013-12-21 03:35:00,
2013-12-20 19:45:00,42.2,21.8,29.99,West,260,0.0,0.0,44,0.00,,,0.00,Wunderground v.1.15,2013-12-21 03:45:00,
2013-12-20 19:50:00,42.3,21.4,29.99,West,260,0.0,0.0,43,0.00,,,0.00,Wunderground v.1.15,2013-12-21 03:50:00,
2013-12-20 20:00:00,42.3,21.4,29.98,West,260,0.0,0.0,43,0.00,,,0.00,Wunderground v.1.15,2013-12-21 04:00:00,
2013-12-20 20:10:00,41.9,21.5,29.98,West,260,0.0,4.0,44,0.00,,,0.00,Wunderground v.1.15,2013-12-21 04:10:00,
2013-12-20 20:15:00,41.6,21.8,29.98,West,260,1.0,4.0,45,0.00,,,0.00,Wunderground v.1.15,2013-12-21 04:15:00,
2013-12-20 20:20:00,41.2,22.0,29.98,West,262,2.0,3.0,46,0.00,,,0.00,Wunderground v.1.15,2013-12-21 04:20:00,
2013-12-20 20:30:00,41.5,22.2,29.99,West,270,2.0,2.0,46,0.00,,,0.00,Wunderground v.1.15,2013-12-21 04:30:00,
2013-12-20 20:40:00,40.8,21.6,29.99,West,270,0.0,3.0,46,0.00,,,0.00,Wunderground v.1.15,2013-12-21 04:40:00,
2013-12-20 20:45:00,40.1,22.0,29.99,West,270,1.0,3.0,48,0.00,,,0.00,Wunderground v.1.15,2013-12-21 04:45:00,
2013-12-20 20:55:00,39.2,21.6,29.99,West,270,1.0,2.0,49,0.00,,,0.00,Wunderground v.1.15,2013-12-21 04:55:00,
2013-12-20 21:00:00,39.1,21.5,29.99,West,270,0.0,0.0,49,0.00,,,0.00,Wunderground v.1.15,2013-12-21 05:00:00,
2013-12-20 21:05:00,39.1,21.5,29.99,West,270,0.0,0.0,49,0.00,,,0.00,Wunderground v.1.15,2013-12-21 05:05:00,
2013-12-20 21:10:00,38.8,21.7,29.99,West,270,0.0,0.0,50,0.00,,,0.00,Wunderground v.1.15,2013-12-21 05:10:00,
2013-12-20 21:15:00,38.6,21.5,29.99,West,270,0.0,2.0,50,0.00,,,0.00,Wunderground v.1.15,2013-12-21 05:15:00,
2013-12-20 21:20:00,38.5,21.5,29.99,West,270,1.0,3.0,50,0.00,,,0.00,Wunderground v.1.15,2013-12-21 05:20:00,
2013-12-20 21:25:00,38.5,21.9,29.99,West,270,1.0,3.0,51,0.00,,,0.00,Wunderground v.1.15,2013-12-21 05:25:00,
2013-12-20 21:30:00,38.5,21.5,29.99,West,270,0.0,0.0,50,0.00,,,0.00,Wunderground v.1.15,2013-12-21 05:30:00,
2013-12-20 21:35:00,38.2,21.6,29.99,West,270,0.0,0.0,51,0.00,,,0.00,Wunderground v.1.15,2013-12-21 05:35:00,
2013-12-20 21:40:00,37.9,21.4,29.99,West,270,0.0,2.0,51,0.00,,,0.00,Wunderground v.1.15,2013-12-21 05:40:00,
2013-12-20 21:45:00,37.9,21.4,29.99,West,270,0.0,2.0,51,0.00,,,0.00,Wunderground v.1.15,2013-12-21 05:45:00,
2013-12-20 21:50:00,37.9,21.8,29.99,West,270,0.0,0.0,52,0.00,,,0.00,Wunderground v.1.15,2013-12-21 05:50:00,
2013-12-20 22:00:00,37.6,22.0,29.99,West,270,0.0,0.0,53,0.00,,,0.00,Wunderground v.1.15,2013-12-21 06:00:00,
2013-12-20 22:10:00,37.0,21.9,29.99,West,270,0.0,0.0,54,0.00,,,0.00,Wunderground v.1.15,2013-12-21 06:10:00,
2013-12-20 22:15:00,36.9,21.8,29.99,West,270,0.0,0.0,54,0.00,,,0.00,Wunderground v.1.15,2013-12-21 06:15:00,
2013-12-20 22:25:00,36.5,21.8,29.99,West,270,0.0,0.0,55,0.00,,,0.00,Wunderground v.1.15,2013-12-21 06:25:00,
2013-12-20 22:30:00,36.2,21.6,29.99,West,270,0.0,0.0,55,0.00,,,0.00,Wunderground v.1.15,2013-12-21 06:30:00,
2013-12-20 22:35:00,36.0,21.4,29.99,West,270,1.0,1.0,55,0.00,,,0.00,Wunderground v.1.15,2013-12-21 06:35:00,
2013-12-20 22:45:00,36.3,21.7,29.99,West,270,1.0,1.0,55,0.00,,,0.00,Wunderground v.1.15,2013-12-21 06:45:00,
2013-12-20 22:50:00,36.3,22.1,29.99,West,270,1.0,1.0,56,0.00,,,0.00,Wunderground v.1.15,2013-12-21 06:50:00,
2013-12-20 22:55:00,36.3,22.1,29.99,West,270,0.0,1.0,56,0.00,,,0.00,Wunderground v.1.15,2013-12-21 06:55:00,
2013-12-20 23:00:00,36.5,21.8,30.00,West,270,0.0,0.0,55,0.00,,,0.00,Wunderground v.1.15,2013-12-21 07:00:00,
2013-12-20 23:05:00,36.3,21.7,30.00,West,270,0.0,0.0,55,0.00,,,0.00,Wunderground v.1.15,2013-12-21 07:05:00,
2013-12-20 23:15:00,35.6,21.9,30.00,West,270,0.0,0.0,57,0.00,,,0.00,Wunderground v.1.15,2013-12-21 07:15:00,
2013-12-20 23:20:00,35.5,22.2,30.00,West,270,0.0,0.0,58,0.00,,,0.00,Wunderground v.1.15,2013-12-21 07:20:00,
2013-12-20 23:30:00,35.3,22.0,30.00,West,270,0.0,0.0,58,0.00,,,0.00,Wunderground v.1.15,2013-12-21 07:30:00,
2013-12-20 23:40:00,34.9,21.6,30.00,West,270,0.0,0.0,58,0.00,,,0.00,Wunderground v.1.15,2013-12-21 07:40:00,
2013-12-20 23:45:00,34.7,21.4,29.99,West,270,0.0,0.0,58,0.00,,,0.00,Wunderground v.1.15,2013-12-21 07:45:00,
2013-12-20 23:50:00,34.6,21.7,29.99,West,270,0.0,0.0,59,0.00,,,0.00,Wunderground v.1.15,2013-12-21 07:50:00,